{"data":{"norad_id":53728,"epoch":"2026-09-20T21:16:34.908096Z","epoch_age_seconds":48280,"freshness":"FRESH","line1":"1 53728U 22107AE  26263.88651514  .00000696  00000+0  31750-4 0  9994","line2":"2 53728  53.1578  81.6106 0001279  91.7045 268.4104 15.34387335224244","mean_motion":15.34387335,"eccentricity":0.0001279,"inclination_deg":53.1578,"raan_deg":81.6106,"arg_perigee_deg":91.7045,"mean_anomaly_deg":268.4104,"bstar":3.175e-5,"rev_number":22424,"period_min":93.84853271094,"perigee_km":461.86593523376,"apogee_km":463.61583179636,"semimajor_km":6840.8778835151,"source":"CELESTRAK","updated_at":"2026-09-21T09:00:32.986898Z"}}